• In Hungary
  • List of Countries
  • For 7 days
  • Water Temperature
  • Satellite Maps
  • Weather Map
  • News
  • Weather Widgets
  • user-avatar
    Login

    Hourly Weather Kaarst

    Today, 20 October, Saturday

    Time Temperature Precipitation Wind Pressure Humidity
    00:00 +10°C° 0 mm 2 mps 766 mmHg 87%
    01:00 +9°C° 0 mm 2 mps 767 mmHg 87%
    02:00 +9°C° 0 mm 2 mps 767 mmHg 88%
    03:00 +9°C° 0 mm 1 mps 767 mmHg 89%
    04:00 +9°C° 0 mm 1 mps 767 mmHg 89%
    05:00 +9°C° 0 mm 1 mps 768 mmHg 89%
    06:00 +8°C° 0 mm 1 mps 768 mmHg 90%
    07:00 +10°C° 0 mm 1 mps 768 mmHg 84%
    08:00 +11°C° 0 mm 1 mps 769 mmHg 78%
    09:00 +12°C° 0 mm 1 mps 769 mmHg 72%
    10:00 +13°C° 0 mm 1 mps 769 mmHg 65%
    11:00 +14°C° 0 mm 1 mps 769 mmHg 58%
    12:00 +16°C° 0 mm 1 mps 769 mmHg 51%
    13:00 +16°C° 0 mm 1 mps 768 mmHg 52%
    14:00 +16°C° 0 mm 1 mps 768 mmHg 52%
    15:00 +16°C° 0 mm 1 mps 768 mmHg 53%
    16:00 +14°C° 0 mm 1 mps 768 mmHg 58%
    17:00 +13°C° 0 mm 1 mps 768 mmHg 64%
    18:00 +12°C° 0 mm 1 mps 769 mmHg 69%
    19:00 +10°C° 0 mm 0 mps 769 mmHg 71%
    20:00 +10°C° 0 mm 0 mps 769 mmHg 73%
    21:00 +9°C° 0 mm 0 mps 769 mmHg 75%
    22:00 +9°C° 0 mm 0 mps 769 mmHg 75%
    23:00 +9°C° 0 mm 0 mps 769 mmHg 76%

    Tomorrow, 21 October, Sunday

    Time Temperature Precipitation Wind Pressure Humidity
    00:00 +9°C° 0 mm 0 mps 769 mmHg 76%
    01:00 +9°C° 0 mm 0 mps 768 mmHg 77%
    02:00 +9°C° 0 mm 0 mps 768 mmHg 77%
    03:00 +9°C° 0 mm 0 mps 768 mmHg 78%
    04:00 +9°C° 0 mm 0 mps 768 mmHg 79%
    05:00 +8°C° 0 mm 0 mps 768 mmHg 81%
    06:00 +8°C° 0 mm 0 mps 768 mmHg 82%
    07:00 +11°C° 0 mm 1 mps 768 mmHg 76%
    08:00 +12°C° 0 mm 1 mps 768 mmHg 70%
    09:00 +14°C° 0 mm 1 mps 768 mmHg 64%
    10:00 +15°C° 0 mm 1 mps 767 mmHg 61%
    11:00 +16°C° 0 mm 1 mps 767 mmHg 57%
    12:00 +18°C° 0 mm 1 mps 767 mmHg 53%
    13:00 +18°C° 0 mm 1 mps 766 mmHg 54%
    14:00 +18°C° 0 mm 1 mps 766 mmHg 54%
    15:00 +18°C° 0 mm 1 mps 765 mmHg 54%
    16:00 +16°C° 0 mm 1 mps 766 mmHg 59%
    17:00 +13°C° 0 mm 0 mps 766 mmHg 64%
    18:00 +12°C° 0 mm 0 mps 766 mmHg 68%
    19:00 +13°C° 0 mm 1 mps 766 mmHg 69%
    20:00 +12°C° 0 mm 1 mps 766 mmHg 69%
    21:00 +12°C° 0 mm 1 mps 766 mmHg 70%
    22:00 +12°C° 0 mm 1 mps 766 mmHg 69%
    23:00 +12°C° 0 mm 1 mps 766 mmHg 68%

    Day after tomorrow, 22 October, Monday

    Time Temperature Precipitation Wind Pressure Humidity
    00:00 +12°C° 0 mm 1 mps 766 mmHg 68%
    01:00 +13°C° 0 mm 1 mps 766 mmHg 67%
    02:00 +13°C° 0 mm 1 mps 766 mmHg 67%
    03:00 +13°C° 0 mm 1 mps 766 mmHg 67%
    04:00 +13°C° 0.1 mm 1 mps 766 mmHg 69%
    05:00 +13°C° 0.1 mm 2 mps 766 mmHg 72%
    06:00 +13°C° 0.1 mm 2 mps 767 mmHg 74%
    07:00 +11°C° 0.4 mm 3 mps 767 mmHg 77%
    08:00 +11°C° 0.4 mm 4 mps 768 mmHg 81%
    09:00 +10°C° 0.4 mm 5 mps 768 mmHg 84%
    10:00 +10°C° 0.3 mm 5 mps 769 mmHg 80%
    11:00 +12°C° 0.3 mm 5 mps 769 mmHg 75%
    12:00 +12°C° 0.3 mm 5 mps 769 mmHg 71%
    13:00 +12°C° 0 mm 5 mps 769 mmHg 68%
    14:00 +12°C° 0 mm 5 mps 769 mmHg 64%
    15:00 +12°C° 0 mm 5 mps 769 mmHg 61%
    16:00 +11°C° 0 mm 4 mps 770 mmHg 62%
    17:00 +11°C° 0 mm 4 mps 770 mmHg 63%
    18:00 +10°C° 0 mm 3 mps 771 mmHg 64%
    19:00 +9°C° 0 mm 3 mps 771 mmHg 67%
    20:00 +8°C° 0 mm 3 mps 772 mmHg 70%
    21:00 +7°C° 0 mm 2 mps 772 mmHg 73%
    22:00 +7°C° 0 mm 2 mps 772 mmHg 74%
    23:00 +7°C° 0 mm 2 mps 772 mmHg 75%

    23 October, Tuesday

    Time Temperature Precipitation Wind Pressure Humidity
    00:00 +7°C° 0 mm 1 mps 772 mmHg 76%
    01:00 +7°C° 0 mm 1 mps 772 mmHg 76%
    02:00 +6°C° 0 mm 2 mps 771 mmHg 76%
    03:00 +6°C° 0 mm 2 mps 771 mmHg 75%
    04:00 +6°C° 0 mm 2 mps 771 mmHg 75%
    05:00 +6°C° 0 mm 2 mps 771 mmHg 74%
    06:00 +7°C° 0 mm 3 mps 770 mmHg 73%
    07:00 +8°C° 0 mm 3 mps 770 mmHg 72%
    08:00 +8°C° 0 mm 4 mps 770 mmHg 71%
    09:00 +10°C° 0 mm 4 mps 769 mmHg 70%
    10:00 +10°C° 0 mm 5 mps 769 mmHg 69%
    11:00 +12°C° 0 mm 5 mps 769 mmHg 68%
    12:00 +12°C° 0 mm 5 mps 768 mmHg 67%
    13:00 +12°C° 0 mm 5 mps 768 mmHg 69%
    14:00 +12°C° 0 mm 5 mps 767 mmHg 71%
    15:00 +12°C° 0 mm 5 mps 767 mmHg 73%
    16:00 +11°C° 0 mm 6 mps 766 mmHg 75%
    17:00 +10°C° 0 mm 6 mps 766 mmHg 78%
    18:00 +10°C° 0 mm 6 mps 766 mmHg 80%
    19:00 +10°C° 0.3 mm 6 mps 766 mmHg 82%
    20:00 +11°C° 0.3 mm 6 mps 765 mmHg 83%
    21:00 +11°C° 0.3 mm 6 mps 765 mmHg 85%
    22:00 +11°C° 0.5 mm 6 mps 765 mmHg 86%
    23:00 +11°C° 0.5 mm 6 mps 765 mmHg 87%

    24 October, Wednesday

    Time Temperature Precipitation Wind Pressure Humidity
    00:00 +11°C° 0.5 mm 6 mps 764 mmHg 88%
    01:00 +13°C° 0.1 mm 6 mps 764 mmHg 89%
    02:00 +13°C° 0.1 mm 5 mps 764 mmHg 89%
    03:00 +13°C° 0.1 mm 5 mps 764 mmHg 89%
    04:00 +13°C° 0.1 mm 5 mps 764 mmHg 89%
    05:00 +13°C° 0.1 mm 5 mps 764 mmHg 90%
    06:00 +14°C° 0.1 mm 5 mps 764 mmHg 90%
    07:00 +14°C° 0.1 mm 5 mps 764 mmHg 90%
    08:00 +14°C° 0.1 mm 5 mps 764 mmHg 89%
    09:00 +14°C° 0.1 mm 5 mps 764 mmHg 89%
    10:00 +15°C° 0.1 mm 5 mps 764 mmHg 89%
    11:00 +15°C° 0.1 mm 5 mps 765 mmHg 88%
    12:00 +15°C° 0.1 mm 5 mps 765 mmHg 88%
    13:00 +15°C° 0.1 mm 5 mps 765 mmHg 88%
    14:00 +15°C° 0.1 mm 5 mps 765 mmHg 87%
    15:00 +15°C° 0.1 mm 5 mps 765 mmHg 87%
    16:00 +15°C° 0 mm 4 mps 765 mmHg 88%
    17:00 +15°C° 0 mm 4 mps 765 mmHg 88%
    18:00 +14°C° 0 mm 4 mps 765 mmHg 89%
    19:00 +14°C° 0.1 mm 3 mps 765 mmHg 89%
    20:00 +14°C° 0.1 mm 3 mps 765 mmHg 90%
    21:00 +14°C° 0.1 mm 3 mps 766 mmHg 90%
    22:00 +14°C° 0.1 mm 3 mps 765 mmHg 91%
    23:00 +14°C° 0.1 mm 3 mps 765 mmHg 92%

    25 October, Thursday

    Time Temperature Precipitation Wind Pressure Humidity
    00:00 +13°C° 0.1 mm 3 mps 765 mmHg 92%
    01:00 +13°C° 0.1 mm 3 mps 765 mmHg 92%
    02:00 +13°C° 0.1 mm 3 mps 765 mmHg 91%
    03:00 +13°C° 0.1 mm 3 mps 764 mmHg 90%
    04:00 +13°C° 0 mm 3 mps 764 mmHg 90%
    05:00 +12°C° 0 mm 3 mps 764 mmHg 90%
    06:00 +12°C° 0 mm 3 mps 764 mmHg 89%
    07:00 +13°C° 0 mm 4 mps 763 mmHg 87%
    08:00 +13°C° 0 mm 4 mps 763 mmHg 85%
    09:00 +14°C° 0 mm 5 mps 763 mmHg 82%
    10:00 +13°C° 0 mm 5 mps 763 mmHg 81%
    11:00 +13°C° 0 mm 5 mps 763 mmHg 79%
    12:00 +13°C° 0 mm 5 mps 762 mmHg 77%
    13:00 +13°C° 0 mm 5 mps 762 mmHg 77%
    14:00 +13°C° 0 mm 4 mps 762 mmHg 76%
    15:00 +12°C° 0 mm 4 mps 762 mmHg 76%
    16:00 +12°C° 0 mm 4 mps 762 mmHg 76%
    17:00 +12°C° 0 mm 4 mps 762 mmHg 76%
    18:00 +11°C° 0 mm 4 mps 762 mmHg 77%
    19:00 +11°C° 0 mm 4 mps 762 mmHg 77%
    20:00 +11°C° 0 mm 4 mps 762 mmHg 78%
    21:00 +11°C° 0 mm 4 mps 762 mmHg 78%
    22:00 +11°C° 0 mm 4 mps 762 mmHg 79%
    23:00 +11°C° 0 mm 4 mps 761 mmHg 81%
    Show more